Wetbulb
64.23 63.01 61.85 62.87 64.08 64.87 65.11 64.39 64.06 64.73 64.77 64.08 63.18 62.82 61.41 61.51 61.86 62.93 63.11 63.53 64.11 65.22 65.32 65.48 65.08 64.43 63.64 62.93 62.18 61.76 61.97 62.16 61.59 61.72 61.67 61.44 60.77 60.63 60.65 60.42 60.25 59.64 59.50
63.97 63.45 63.03 62.86 63.46 64.43 65.28 64.81 64.06 63.69 63.98 64.37 63.28 62.63 60.86 61.25 61.06 61.91 62.21 62.43 62.58 63.71 64.40 64.26 63.52 63.71 63.55 63.00 62.50 61.38 61.19 61.39 60.76 61.41 61.09 60.58 60.75 60.53 60.41 59.70 59.44 59.03 59.06
64.88 63.81 63.74 63.56 63.66 64.28 64.31 63.42 62.54 62.49 62.86 63.73 63.00 62.17 61.07 60.67 60.53 61.19 61.16 61.09 61.36 61.47 62.58 63.71 63.83 63.45 62.98 62.83 62.00 60.98 60.83 60.78 60.67 61.05 60.44 60.30 60.23 60.09 59.51 59.17 58.93 58.86 58.72
65.67 64.00 63.42 63.25 63.74 63.55 63.40 62.65 62.48 61.49 62.05 62.23 61.55 61.14 59.93 60.46 60.02 60.20 60.54 60.23 59.51 59.75 60.86 61.98 62.78 62.94 63.09 62.53 61.24 61.31 60.85 60.30 60.36 60.37 60.22 60.12 59.85 59.66 59.15 58.74 58.68 58.61 58.41
64.14 63.38 62.73 62.71 63.65 63.25 62.49 61.63 60.83 61.36 61.40 61.65 61.50 59.95 57.53 58.44 59.41 60.17 59.30 58.96 58.31 57.69 58.27 60.75 61.02 61.15 62.44 63.08 61.47 61.23 60.90 60.75 60.75 60.49 60.36 60.14 59.83 59.38 58.93 58.70 58.44 58.38 58.12
64.02 62.40 61.73 61.92 62.53 61.92 60.88 60.48 60.91 61.29 61.42 61.27 61.65 59.17 56.64 57.08 57.68 58.59 58.02 58.84 58.12 57.85 58.65 59.18 59.35 59.32 60.49 61.64 61.67 61.28 61.52 61.50 61.16 60.52 60.71 60.33 59.91 59.25 58.96 58.59 58.55 58.40 58.12
62.98 61.34 61.74 62.89 62.37 61.03 61.55 61.08 61.11 60.48 60.23 60.70 57.84 56.83 56.36 55.64 54.56 57.07 57.64 57.65 56.88 57.62 58.38 59.02 58.89 58.00 59.11 60.55 61.55 61.73 61.59 61.75 61.63 61.33 60.85 60.45 59.82 59.36 58.81 58.59 58.51 58.38 58.21
62.05 61.70 62.39 62.05 61.74 61.46 61.17 61.16 60.56 60.00 59.95 60.21 56.50 55.37 52.37 54.20 55.92 54.86 57.08 57.35 56.12 57.66 57.99 58.65 58.33 57.44 57.39 58.18 58.10 61.46 62.00 62.06 61.96 61.64 60.99 61.11 60.82 59.79 58.98 58.81 58.64 58.59 58.32
62.46 62.24 62.02 61.95 61.75 61.57 60.78 60.73 60.47 59.62 58.20 59.40 58.12 54.89 51.46 49.91 53.67 54.87 54.55 56.31 56.52 57.24 57.68 58.06 57.74 57.32 57.16 57.10 58.07 59.09 58.52 59.13 62.08 62.64 62.32 61.85 61.32 61.04 60.37 59.90 59.36 58.98 58.91
62.39 62.51 62.38 61.89 61.44 61.46 60.97 60.72 60.76 59.85 59.09 57.25 57.19 57.22 55.93 54.94 51.13 50.08 53.78 54.42 55.75 56.29 55.98 57.47 57.34 57.36 57.19 56.95 57.16 56.38 55.44 55.44 57.52 61.43 62.79 62.63 62.21 61.91 61.56 61.50 61.17 60.91 60.48
61.53 61.32 61.06 61.36 60.94 61.15 61.05 61.05 60.27 59.48 59.36 58.30 56.84 55.61 54.20 54.81 54.34 52.22 49.76 51.66 53.83 55.35 54.99 56.25 57.47 57.47 57.60 57.65 56.66 56.12 53.95 53.50 54.28 58.00 60.80 62.54 63.10 62.69 62.32 62.13 62.11 61.84 61.60
60.52 60.87 61.04 61.08 61.23 60.81 60.47 60.65 60.46 59.82 59.18 58.72 58.16 57.05 55.33 54.34 53.55 52.98 51.08 51.44 52.22 53.15 54.69 55.31 55.59 55.82 55.98 57.19 57.70 55.69 53.21 51.90 52.65 55.28 57.92 59.81 61.36 62.54 63.11 62.85 62.76 62.83 62.61
57.42 58.31 60.14 59.98 60.15 60.41 60.33 60.53 60.04 59.47 59.26 58.43 58.02 57.50 57.53 56.13 56.15 55.63 53.95 53.79 52.69 52.95 53.66 54.07 55.06 55.11 56.93 55.88 56.13 54.57 53.58 51.18 51.25 53.19 54.95 56.56 57.80 59.13 60.42 61.59 62.58 63.31 63.31
57.78 58.13 58.65 59.71 59.62 60.03 59.59 59.78 59.82 59.43 59.34 58.54 57.75 57.78 57.71 57.64 56.82 56.10 54.33 53.00 50.60 52.25 53.65 54.52 56.70 57.28 57.34 57.30 56.50 52.65 55.06 49.46 49.63 50.47 51.81 53.36 54.62 55.61 56.41 57.55 58.64 59.67 60.75
58.94 58.29 58.47 58.57 59.21 59.01 58.81 58.72 58.76 58.81 58.71 58.42 57.52 57.62 57.53 57.98 57.05 56.64 56.16 54.56 51.08 47.72 50.53 52.86 55.33 58.04 57.91 57.70 56.22 56.85 56.78 53.82 49.61 48.73 48.82 50.10 52.17 53.52 54.05 54.91 55.70 56.47 57.53
58.81 58.36 57.79 57.77 57.69 58.23 58.97 58.44 57.82 58.34 58.39 58.10 57.68 57.08 56.72 56.62 56.40 56.28 54.91 53.91 53.63 51.36 49.89 53.27 53.85 55.11 58.11 59.75 58.56 58.47 58.93 54.36 50.92 48.89 48.55 48.38 49.11 50.79 51.73 52.25 52.89 53.73 54.66
58.61 58.28 58.02 57.14 57.02 56.98 57.39 58.43 57.96 58.01 57.44 57.28 56.72 56.70 56.02 56.16 55.16 55.44 54.99 53.39 53.59 53.02 50.30 52.03 53.77 54.83 54.16 55.05 55.89 56.19 57.27 57.70 57.82 49.73 48.47 48.12 47.71 47.80 49.03 49.69 49.92 50.79 51.62
59.47 58.48 58.16 57.28 56.78 56.70 56.80 56.56 56.84 57.36 56.74 56.22 55.62 55.36 55.06 55.64 54.67 55.07 55.02 54.05 53.85 53.59 52.21 50.46 52.38 52.12 53.90 53.89 54.86 55.05 55.98 57.53 57.55 53.79 50.00 48.59 48.10 47.45 45.85 44.46 44.54 44.97 45.82
58.15 58.32 58.45 57.78 57.02 56.52 56.32 56.36 56.26 55.92 56.26 56.14 55.64 55.38 54.76 54.90 54.26 54.29 54.09 53.66 53.93 54.05 53.42 52.18 51.17 52.41 53.94 53.07 52.92 52.96 53.96 54.93 56.06 52.54 48.74 42.60 42.38 42.65 41.39 41.57 41.82 41.75 42.32
52.88 49.47 48.33 47.02 46.66 46.22 48.94 54.43 56.02 55.40 55.44 55.23 55.23 55.41 54.81 54.85 54.52 54.12 53.85 53.39 53.35 52.53 53.70 52.87 52.06 52.25 51.10 52.10 53.35 52.49 52.89 54.64 54.55 51.82 42.16 41.24 40.30 40.17 39.99 39.74 40.22 40.09 40.38
45.19 44.76 42.77 41.51 40.86 40.34 39.08 43.30 51.44 54.18 55.32 53.26 51.94 45.08 42.12 41.54 39.31 40.55 51.97 50.59 51.67 53.09 53.07 52.24 51.96 52.39 52.55 52.82 50.80 48.35 50.52 50.06 47.27 44.59 48.49 43.87 40.01 38.11 36.93 37.07 37.63 37.92 37.61
39.09 38.42 37.32 37.72 38.24 38.41 37.43 38.17 44.10 43.25 43.17 42.88 42.62 41.71 38.59 38.75 37.05 35.90 35.50 34.46 34.75 40.32 47.20 48.23 49.84 46.46 42.52 37.91 37.88 39.49 41.70 44.86 44.73 35.61 39.64 40.64 36.68 32.87 34.00 34.92 35.70 35.72 35.88
36.21 35.50 35.61 36.16 37.13 37.75 36.77 37.00 36.75 36.42 35.51 35.56 35.78 36.60 35.91 35.78 37.35 35.13 33.46 32.70 32.24 32.25 31.57 36.93 33.37 30.97 31.52 29.97 31.27 36.09 39.12 39.59 39.23 31.03 34.01 35.34 32.62 29.71 32.68 33.95 34.74 34.78 34.90
33.96 33.59 33.30 34.07 35.28 36.18 35.51 35.02 34.08 33.42 32.43 32.10 32.23 32.45 32.96 34.38 36.57 35.16 31.83 30.41 29.77 29.91 29.94 30.26 29.44 28.72 29.43 30.08 29.32 31.29 32.42 33.23 30.66 28.76 27.93 30.98 30.72 28.24 29.76 30.65 32.92 32.91 32.78
32.38 31.68 32.14 32.22 33.19 34.17 35.46 34.44 33.23 31.79 30.64 30.45 31.31 31.48 31.63 32.17 35.14 34.57 30.96 28.35 27.22 27.67 31.26 31.63 31.44 31.06 30.43 30.17 29.91 27.70 26.27 26.91 29.17 25.91 26.35 27.38 25.15 20.64 19.01 20.27 23.68 31.47 31.60
30.90 30.67 30.25 31.27 32.30 32.38 33.86 33.78 32.44 30.45 28.30 27.96 28.96 30.03 31.85 30.57 31.34 30.92 29.02 27.72 26.03 26.27 28.28 29.04 28.95 29.69 29.85 28.44 27.99 23.05 22.38 23.75 17.66 17.93 22.89 26.32 28.02 27.20 25.81 18.12 22.70 23.56 21.51
MSLP
1011.34 1011.96 1012.52 1012.71 1013.06 1013.49 1013.97 1014.65 1014.86 1015.24 1015.26 1015.45 1015.46 1015.84 1016.87 1017.31 1017.68 1018.14 1019.04 1019.29 1019.56 1019.86 1020.20 1020.64 1021.03 1021.36 1021.91 1022.37 1022.76 1022.98 1023.25 1023.64 1023.90 1024.18 1024.44 1024.70 1025.06 1025.35 1025.66 1025.92 1026.18 1026.29 1026.56
1010.95 1011.73 1012.41 1012.66 1012.99 1013.21 1013.67 1014.13 1014.32 1014.76 1015.20 1015.34 1015.62 1015.67 1016.66 1017.29 1017.75 1018.22 1019.06 1019.44 1019.72 1019.86 1020.17 1020.54 1021.00 1021.50 1021.96 1022.42 1022.83 1023.16 1023.47 1023.69 1023.98 1024.29 1024.58 1024.85 1025.19 1025.53 1025.79 1026.04 1026.28 1026.36 1026.59
1010.42 1011.37 1012.05 1012.42 1012.83 1013.06 1013.58 1014.15 1014.36 1014.72 1015.14 1015.42 1016.05 1015.70 1016.42 1017.22 1017.77 1018.50 1019.12 1019.43 1019.90 1019.97 1020.29 1020.76 1021.14 1021.54 1021.85 1022.38 1022.81 1023.10 1023.48 1023.82 1024.08 1024.34 1024.62 1024.93 1025.11 1025.39 1025.76 1026.10 1026.25 1026.41 1026.64
1010.07 1010.80 1011.54 1012.00 1012.41 1012.85 1013.14 1013.98 1014.33 1014.80 1015.26 1015.66 1016.12 1016.04 1016.49 1017.05 1017.73 1018.60 1018.94 1019.42 1019.83 1020.07 1020.43 1020.89 1021.20 1021.69 1021.99 1022.32 1022.68 1023.05 1023.34 1023.63 1023.95 1024.23 1024.53 1024.82 1025.14 1025.40 1025.64 1025.89 1026.14 1026.30 1026.51
1009.97 1010.50 1011.13 1011.63 1012.06 1012.62 1013.17 1013.64 1014.28 1014.70 1015.23 1015.71 1016.25 1016.63 1016.40 1016.90 1017.59 1018.18 1018.98 1019.35 1019.71 1020.16 1020.48 1020.70 1021.10 1021.46 1021.85 1022.06 1022.56 1022.93 1023.23 1023.48 1023.78 1024.04 1024.34 1024.57 1024.85 1025.09 1025.40 1025.68 1025.93 1026.16 1026.34
1009.77 1010.42 1011.00 1011.46 1011.90 1012.50 1013.08 1013.61 1014.14 1014.60 1014.99 1015.14 1015.98 1016.43 1016.13 1016.45 1017.28 1018.27 1018.81 1019.10 1019.55 1019.92 1020.33 1020.84 1021.14 1021.41 1021.64 1021.85 1022.29 1022.70 1022.91 1023.34 1023.62 1023.82 1024.08 1024.29 1024.58 1024.86 1025.12 1025.45 1025.65 1025.86 1026.08
1009.46 1010.30 1010.87 1011.37 1011.86 1012.26 1012.61 1013.32 1013.88 1014.32 1014.82 1014.75 1015.86 1016.51 1016.53 1016.50 1017.26 1018.05 1018.48 1018.93 1019.38 1019.71 1020.00 1020.61 1021.13 1021.38 1021.50 1021.69 1021.89 1022.31 1022.57 1022.97 1023.32 1023.58 1023.82 1024.12 1024.40 1024.64 1024.88 1025.20 1025.49 1025.64 1025.88
1009.39 1009.97 1010.48 1011.05 1011.46 1012.02 1012.57 1013.00 1013.34 1013.89 1014.26 1014.81 1015.37 1016.06 1016.93 1017.50 1017.66 1018.16 1018.37 1018.74 1019.05 1019.35 1019.80 1020.25 1020.70 1021.03 1021.22 1021.53 1021.81 1021.96 1022.21 1022.52 1022.97 1023.34 1023.60 1023.84 1024.12 1024.41 1024.68 1024.90 1025.16 1025.32 1025.51
1009.20 1009.65 1010.21 1010.73 1011.22 1011.72 1012.20 1012.69 1013.01 1013.34 1013.80 1014.87 1015.06 1014.92 1015.96 1017.07 1017.68 1018.21 1018.47 1018.61 1018.86 1019.14 1019.32 1019.79 1020.31 1020.63 1020.90 1021.16 1021.48 1021.71 1021.96 1022.33 1022.53 1022.82 1023.15 1023.49 1023.76 1023.90 1024.12 1024.44 1024.68 1024.87 1024.97
1009.06 1009.29 1009.93 1010.46 1010.91 1011.34 1011.83 1012.38 1012.68 1013.10 1013.57 1014.24 1015.00 1014.71 1014.67 1015.70 1016.99 1018.14 1018.19 1018.31 1018.47 1018.80 1019.03 1019.28 1019.76 1020.02 1020.32 1020.64 1020.97 1021.27 1021.49 1021.86 1022.12 1022.43 1022.55 1022.73 1023.04 1023.28 1023.47 1023.73 1024.02 1024.21 1024.31
1008.90 1009.30 1009.68 1010.13 1010.60 1010.98 1011.30 1011.89 1012.13 1012.76 1013.36 1013.70 1014.26 1014.61 1014.90 1015.44 1016.22 1017.18 1018.06 1018.24 1018.35 1018.19 1018.47 1018.68 1018.93 1019.28 1019.50 1019.94 1020.38 1020.63 1020.95 1021.36 1021.72 1021.98 1022.26 1022.47 1022.58 1022.76 1022.89 1023.09 1023.29 1023.46 1023.62
1008.68 1009.15 1009.49 1009.93 1010.35 1010.64 1010.92 1011.30 1011.74 1012.13 1012.78 1013.51 1013.98 1014.44 1014.75 1015.24 1016.11 1016.69 1017.47 1017.96 1017.98 1018.10 1018.12 1018.32 1018.57 1018.76 1018.99 1019.28 1019.49 1019.82 1020.38 1020.83 1021.14 1021.50 1021.69 1021.91 1022.09 1022.16 1022.23 1022.39 1022.62 1022.76 1022.83
1008.72 1009.01 1009.27 1009.62 1009.94 1010.19 1010.43 1010.65 1011.06 1011.56 1012.41 1013.18 1013.70 1014.01 1014.40 1014.66 1015.25 1015.88 1016.54 1017.34 1017.80 1018.11 1018.16 1018.13 1018.17 1018.32 1018.45 1018.67 1018.88 1019.20 1019.56 1019.98 1020.32 1020.65 1020.95 1021.13 1021.37 1021.50 1021.60 1021.69 1021.88 1022.00 1022.09
1008.48 1008.88 1009.11 1009.35 1009.62 1009.85 1009.82 1010.06 1010.82 1011.38 1012.18 1012.95 1013.62 1014.09 1014.39 1014.72 1015.04 1015.32 1015.98 1016.72 1017.64 1017.98 1018.02 1017.84 1017.70 1017.72 1017.84 1018.02 1018.24 1018.61 1019.04 1019.42 1019.75 1020.04 1020.21 1020.36 1020.56 1020.66 1020.70 1020.76 1020.91 1021.05 1021.14
1008.20 1008.72 1009.03 1009.16 1009.28 1009.36 1009.66 1009.94 1010.68 1011.26 1011.97 1012.67 1013.38 1013.98 1014.43 1014.82 1015.11 1015.28 1015.42 1016.09 1016.93 1018.01 1017.96 1017.73 1017.68 1017.30 1017.57 1017.95 1018.12 1018.50 1018.75 1018.78 1019.08 1019.26 1019.41 1019.59 1019.63 1019.65 1019.75 1019.82 1019.93 1020.04 1020.13
1008.00 1008.55 1008.90 1009.07 1009.18 1009.42 1009.74 1010.02 1010.54 1011.06 1011.83 1012.68 1013.32 1013.94 1014.54 1014.70 1014.75 1015.10 1015.82 1016.32 1016.74 1017.35 1017.83 1017.37 1017.48 1017.31 1017.43 1017.57 1017.69 1017.94 1017.93 1018.02 1018.05 1018.18 1018.37 1018.51 1018.66 1018.73 1018.72 1018.81 1018.98 1018.93 1018.95
1007.85 1008.32 1008.75 1009.06 1009.24 1009.43 1009.62 1009.82 1010.16 1010.87 1011.59 1012.30 1013.16 1013.77 1014.27 1014.44 1014.72 1015.23 1015.66 1016.22 1016.77 1017.10 1017.60 1017.18 1017.34 1017.34 1017.48 1017.29 1017.18 1017.44 1017.45 1017.46 1017.34 1017.48 1017.60 1017.59 1017.59 1017.68 1017.77 1017.64 1017.60 1017.77 1017.87
1007.62 1008.11 1008.57 1008.97 1009.37 1009.54 1009.74 1009.97 1010.22 1010.62 1011.44 1012.33 1013.11 1013.71 1014.16 1014.33 1014.68 1014.89 1015.23 1015.75 1016.27 1016.73 1017.24 1017.36 1016.84 1017.12 1017.06 1016.98 1016.88 1016.92 1016.84 1016.70 1016.77 1016.71 1016.64 1016.74 1016.79 1017.30 1018.07 1018.08 1017.92 1017.97 1018.08
1007.58 1008.14 1008.61 1008.96 1009.36 1009.70 1010.00 1010.20 1010.54 1010.99 1011.68 1012.26 1012.83 1013.35 1013.88 1014.28 1014.64 1014.91 1015.32 1016.00 1016.38 1016.63 1016.86 1017.07 1016.66 1016.71 1016.51 1016.56 1016.44 1016.36 1016.24 1016.17 1016.22 1016.24 1016.40 1017.42 1017.50 1017.68 1018.22 1018.36 1018.48 1018.40 1018.25
1008.40 1009.08 1009.52 1009.88 1010.22 1010.55 1010.60 1010.51 1010.93 1011.24 1011.72 1012.22 1012.75 1013.16 1013.64 1014.14 1014.59 1015.01 1015.40 1015.62 1015.92 1016.34 1016.52 1016.60 1016.56 1016.44 1016.48 1016.19 1016.36 1016.37 1016.24 1016.32 1016.21 1016.77 1017.64 1018.02 1018.60 1018.87 1018.93 1018.90 1018.74 1018.78 1018.64
1009.67 1010.15 1010.57 1011.01 1011.28 1011.46 1011.69 1011.54 1011.23 1011.40 1011.78 1012.54 1013.08 1014.18 1015.05 1015.41 1015.30 1015.37 1015.40 1015.80 1015.80 1016.22 1016.29 1016.32 1016.44 1016.43 1016.34 1016.39 1016.77 1017.17 1016.90 1016.96 1017.43 1017.71 1017.74 1018.53 1018.58 1019.31 1019.36 1019.26 1018.92 1019.53 1019.14
1011.01 1011.30 1011.78 1012.05 1012.24 1012.44 1012.36 1012.09 1012.12 1012.53 1013.04 1013.76 1014.44 1015.36 1016.04 1016.34 1016.69 1016.48 1016.90 1017.24 1017.02 1016.80 1016.79 1016.77 1016.90 1017.34 1017.78 1018.46 1018.51 1018.38 1018.10 1017.89 1018.27 1019.09 1018.78 1018.97 1019.37 1019.82 1019.92 1019.97 1020.16 1019.82 1019.83
1012.04 1012.59 1012.74 1012.88 1013.06 1013.42 1013.28 1013.00 1013.20 1013.91 1014.65 1015.26 1015.82 1016.22 1016.72 1017.09 1017.25 1017.39 1017.74 1018.12 1018.34 1018.31 1018.42 1018.09 1018.77 1019.56 1019.80 1020.06 1019.88 1019.08 1018.89 1018.83 1019.09 1019.99 1019.60 1019.66 1020.27 1020.20 1020.56 1020.51 1020.28 1020.33 1019.51
1013.21 1013.47 1014.10 1013.87 1013.74 1014.47 1014.79 1014.57 1014.38 1014.94 1015.70 1016.44 1016.86 1017.15 1017.45 1017.56 1017.22 1017.56 1018.22 1018.86 1019.39 1019.61 1019.76 1019.82 1020.25 1020.74 1020.84 1020.67 1020.40 1020.07 1019.91 1019.86 1020.40 1020.83 1020.59 1020.55 1020.80 1021.04 1021.11 1020.96 1020.61 1020.57 1020.25
1014.83 1014.88 1015.20 1015.19 1014.83 1015.13 1015.61 1015.89 1015.76 1016.18 1016.84 1017.47 1017.82 1017.95 1017.96 1018.00 1018.10 1018.27 1018.58 1019.27 1020.27 1020.95 1021.12 1021.11 1021.14 1021.24 1021.23 1020.85 1020.45 1020.27 1020.43 1020.17 1020.70 1021.46 1021.58 1021.45 1021.30 1021.55 1021.46 1021.34 1021.19 1020.81 1020.66
1016.05 1016.17 1016.39 1016.50 1015.96 1015.68 1016.65 1016.60 1017.04 1017.24 1017.64 1018.34 1018.82 1018.87 1018.86 1018.74 1018.91 1019.15 1019.55 1020.06 1020.79 1021.67 1021.76 1021.75 1021.78 1021.70 1021.62 1021.44 1021.19 1021.30 1021.34 1021.48 1021.74 1022.12 1022.08 1021.84 1021.58 1021.57 1021.60 1021.47 1021.28 1020.91 1020.90
Wind_Speed
7 6 5 4 5 6 8 8 8 6 6 7 8 6 8 9 10 7 6 13 14 17 18 17 16 16 16 15 14 15 15 16 15 15 14 13 13 13 12 12 11 11 10
7 7 7 6 5 7 7 7 7 6 6 4 5 7 10 10 11 10 6 8 12 14 16 16 16 17 17 18 16 15 14 14 14 14 13 12 10 12 12 11 10 10 9
9 8 7 7 6 7 8 6 4 3 4 2 2 3 11 12 10 11 8 6 7 11 11 14 16 17 17 17 16 15 14 13 13 14 13 12 12 13 12 10 10 9 8
10 9 7 7 7 6 8 7 6 4 5 5 2 2 8 11 12 11 9 7 5 5 9 13 15 14 15 17 15 15 15 15 13 14 14 13 12 12 11 11 10 10 10
7 7 6 6 8 7 7 7 4 7 7 7 5 4 6 10 11 9 11 9 7 5 4 12 14 14 15 16 15 16 16 16 16 15 15 15 14 13 13 12 12 11 11
8 6 5 6 7 7 6 6 8 5 5 7 8 5 5 7 9 9 9 8 8 9 7 5 6 7 13 15 16 17 17 17 17 16 16 16 15 14 14 13 13 13 13
7 7 6 8 7 7 9 9 6 8 5 11 5 4 4 5 7 8 8 8 8 9 8 7 5 4 6 13 18 18 18 18 18 18 17 16 15 15 15 14 14 14 14
6 8 10 10 9 7 8 8 8 5 4 7 6 9 4 3 3 5 8 9 10 8 8 9 9 8 7 6 7 17 17 18 19 18 17 16 15 15 15 15 16 15 15
7 8 10 9 9 8 8 9 10 9 7 7 6 5 7 5 4 2 5 4 9 7 8 10 10 9 8 7 8 12 13 13 15 18 17 16 16 17 17 18 18 18 18
7 8 10 10 11 8 9 10 9 8 6 12 3 5 3 6 8 2 2 3 5 6 9 9 10 10 10 8 11 12 14 15 15 14 17 20 20 20 20 20 20 19 19
8 8 9 10 10 8 10 12 12 12 8 8 7 4 3 3 3 4 3 3 0 4 5 8 9 9 11 11 8 10 16 17 16 17 16 16 18 20 20 21 21 21 21
4 7 8 9 10 10 11 11 15 15 9 8 6 5 4 4 4 4 3 3 8 3 3 4 5 5 5 8 10 14 16 17 17 17 19 19 19 18 19 21 22 22 22
3 4 6 7 7 9 11 12 12 13 11 10 9 5 2 3 4 3 4 3 4 3 3 3 5 5 4 5 6 13 17 19 18 20 20 19 20 20 20 20 20 21 23
6 7 6 7 8 11 9 12 8 10 11 8 7 4 3 2 2 4 4 4 2 3 2 4 4 6 6 7 7 9 6 15 16 16 17 19 19 20 20 21 22 22 23
6 6 6 6 8 7 8 11 8 11 11 8 5 4 3 3 3 3 4 4 5 4 3 2 2 5 4 2 4 6 6 10 15 17 17 18 20 21 20 21 21 22 24
8 8 6 5 6 6 9 11 10 8 12 8 4 5 3 3 5 5 4 4 4 3 3 3 1 1 4 4 8 10 11 14 16 17 18 18 18 20 20 20 21 22 24
9 9 8 6 6 6 5 9 10 13 11 9 6 6 6 5 4 4 4 3 3 3 2 3 1 1 4 6 4 5 6 6 7 13 16 18 18 18 20 21 22 21 21
8 8 8 7 6 6 6 6 8 11 11 10 8 7 6 3 4 4 3 1 0 3 3 10 9 6 6 5 4 5 5 6 6 11 16 16 16 11 6 4 1 4 8
6 5 7 7 7 6 6 6 6 7 8 9 9 8 6 6 5 4 4 5 5 3 6 8 10 5 5 3 5 4 8 10 8 11 12 16 15 15 16 12 11 11 10
11 10 10 10 10 9 7 3 6 7 7 6 7 7 7 7 6 5 7 9 8 8 7 6 7 8 5 5 5 8 8 3 3 8 18 14 13 17 15 15 15 13 13
11 11 11 11 9 8 6 4 6 4 7 5 8 12 13 13 15 9 1 0 3 7 7 7 7 7 8 4 2 3 2 3 4 6 3 5 6 5 7 12 13 15 16
11 12 12 10 9 6 6 6 8 11 12 11 11 10 11 11 14 19 21 21 14 3 1 1 2 3 3 4 4 3 3 2 2 7 4 4 4 6 6 7 14 14 13
12 12 11 11 12 11 16 19 19 12 12 12 10 8 9 6 6 11 17 18 19 20 16 4 5 5 3 5 5 3 2 2 3 6 4 3 4 6 4 5 11 11 13
12 12 11 12 13 11 17 18 21 15 14 13 11 10 9 6 4 12 12 13 13 14 11 9 10 7 5 5 3 2 2 1 4 5 6 2 3 2 1 2 9 10 10
11 12 11 12 14 13 16 14 14 13 14 15 14 13 11 11 14 16 12 13 11 9 14 18 17 15 16 17 14 2 5 2 3 3 7 2 2 1 1 2 3 8 6
11 9 11 11 18 15 17 17 13 9 13 10 11 13 22 17 21 18 11 10 12 6 5 7 7 9 10 11 16 7 2 5 2 3 4 2 4 1 1 2 1 2 3
Wind_Direction
153 150 157 159 161 159 168 171 173 180 181 180 169 175 129 131 133 135 149 149 150 153 155 157 157 161 156 158 165 161 148 146 149 144 142 139 146 142 141 138 138 136 140
153 163 167 172 171 165 169 177 177 173 187 172 197 171 139 138 138 137 145 153 153 153 155 158 163 159 162 157 156 163 161 157 160 148 146 142 146 143 141 144 147 148 156
161 158 166 169 175 162 160 168 155 124 132 146 239 153 143 139 138 147 149 146 158 150 152 160 159 168 166 163 163 166 166 165 169 160 158 157 150 146 154 161 162 163 168
163 159 162 162 164 158 170 164 168 139 143 164 165 285 147 147 144 153 145 150 150 151 156 164 157 166 169 173 173 173 175 176 177 170 170 169 169 169 171 175 179 181 185
158 155 165 157 159 172 166 157 157 168 167 172 180 223 169 139 149 144 157 157 150 152 156 168 168 174 176 172 176 184 184 185 186 184 182 181 183 183 186 189 193 196 200
163 155 152 151 160 159 148 145 161 173 171 180 173 185 159 129 139 155 163 155 165 165 158 163 172 181 180 168 177 193 191 194 197 196 191 192 195 196 197 201 204 207 210
156 149 152 159 162 169 170 168 158 172 185 154 144 107 50 125 137 157 163 165 172 172 162 168 181 184 189 182 179 196 202 204 204 206 204 203 204 205 206 211 216 217 222
156 154 162 172 169 165 167 168 155 159 144 147 148 146 140 59 63 144 166 178 175 174 170 181 184 188 183 184 192 197 207 212 210 213 213 211 209 210 215 219 223 225 226
167 165 168 170 168 169 175 173 166 165 158 171 225 152 133 177 132 142 158 171 182 181 184 185 191 190 188 187 194 202 203 220 223 214 215 213 214 214 217 223 226 229 229
181 167 172 171 176 179 178 182 171 161 155 169 212 183 114 138 161 150 327 200 162 180 181 186 191 194 194 196 198 199 202 211 220 231 222 213 214 217 219 222 226 228 229
178 177 176 177 180 186 183 180 173 168 171 166 175 174 110 114 117 126 179 239 279 210 190 182 192 201 194 195 196 204 203 209 217 224 232 238 228 225 225 227 228 230 233
132 168 174 182 191 190 185 183 185 172 162 174 176 172 163 148 174 149 135 183 210 252 208 194 185 191 193 184 195 195 200 208 213 220 225 231 236 238 235 235 237 238 237
133 184 172 182 190 197 193 177 175 173 164 172 182 184 182 137 149 153 132 157 185 220 201 225 209 193 205 211 205 185 200 206 209 216 224 228 232 236 238 241 245 246 244
173 181 188 199 202 212 190 164 171 168 170 162 171 171 169 183 159 148 139 139 109 176 213 209 210 218 210 205 215 214 212 202 211 217 223 225 229 231 232 234 238 243 246
159 164 172 168 170 160 160 165 168 171 169 173 172 175 181 173 139 126 113 129 142 152 172 213 184 216 204 213 209 213 215 216 213 217 222 226 230 232 233 235 235 238 243
161 160 169 159 143 157 177 174 179 163 172 174 173 162 179 177 137 112 121 113 94 115 185 181 204 27 201 195 225 225 230 225 221 221 225 227 232 234 233 233 237 237 240
159 163 168 165 163 152 144 176 166 172 169 155 147 171 176 169 130 134 124 129 134 130 207 296 176 194 240 227 241 209 234 230 238 231 234 235 234 234 238 234 233 240 247
159 162 164 163 163 162 148 140 152 155 158 163 162 162 173 160 147 136 99 10 230 158 180 262 272 263 241 212 212 232 249 242 235 234 237 243 250 282 9 57 48 307 276
125 125 150 159 165 163 159 150 149 154 163 171 174 177 174 172 195 187 191 226 237 199 213 232 258 237 242 226 263 270 272 268 264 269 268 65 61 69 77 64 52 42 34
85 83 75 76 74 68 62 105 156 159 162 168 174 183 174 196 225 205 215 223 229 234 218 224 245 260 251 255 241 265 273 229 299 76 76 86 73 70 69 59 51 50 49
75 82 85 75 68 67 44 30 70 123 178 103 71 80 67 65 71 61 239 244 263 232 227 235 241 247 255 260 2 12 348 337 74 27 58 60 75 60 43 51 65 52 58
73 75 66 67 60 51 34 78 78 76 75 82 84 89 78 64 69 77 74 64 56 27 8 355 13 25 50 21 344 336 301 337 234 42 344 103 61 65 55 55 59 61 57
74 64 68 63 60 59 62 77 82 78 75 68 71 72 77 58 94 97 76 67 57 55 47 10 74 34 33 358 317 319 358 347 24 5 339 74 43 68 47 62 64 53 58
70 73 58 59 71 65 62 76 86 85 80 71 64 64 74 63 104 109 97 81 66 57 50 62 74 68 49 5 326 288 314 330 103 44 5 64 359 56 38 9 46 40 38
68 66 66 63 67 64 68 69 80 83 81 74 68 62 58 56 81 102 96 92 79 68 71 78 77 68 54 44 39 32 21 35 90 42 16 0 334 25 354 346 349 15 12
68 67 65 61 74 72 69 78 80 85 86 80 68 64 64 72 73 77 85 97 98 92 83 72 53 44 43 43 45 43 4 60 52 44 318 24 346 5 311 269 259 242 318